Flag for Sweden Weather past 2 weeks in Stockholm, Sweden

Now
50 °F

Passing clouds.


Feels Like: 48 °F
Forecast: 46 / 54 °F
Wind: 5 mph from Southeast

Location: Stockholm Bromma Airport

Current Time: Oct 1, 2014 at 8:31:59 PM

Latest Report: Oct 1, 2014 at 7:50 PM


Visibility: N/A

Pressure: 30.39 "Hg

Humidity: 82%

Dew point: 45 °F

Location of StockholmLocation

Historic Weather in Stockholm — Graph

°F

Stockholm temperature yesterday

Maximum temperature yesterday: 55 °F (at 1:50 PM)
Minimum temperature yesterday: 36 °F (at 10:50 PM)
Average temperature yesterday: 46 °F

Past Weeks' High & Low Weather Summary

 TemperatureHumidityPressure
High66 °F (Sep 17, 2:50 PM)100% (Sep 16, 10:20 PM)30.48 "Hg (Sep 16, 10:20 PM)
Low30 °F (Sep 23, 10:50 PM)43% (Sep 23, 5:20 PM)29.47 "Hg (Sep 22, 2:50 AM)
Average51 °F83%29.96 "Hg
* Reported Sep 16 7:20 PM — Oct 1 7:20 PM, Stockholm, Weather by CustomWeather, © 2014

Note: Actual official high and low records may vary slightly from our data, if they occured in-between our weather recording intervals... More about our weather records

Advertising

Stockholm weather history for previous 24 hours

 ConditionsComfort  
Time TempWeatherWind HumidityBarometerVisibility
7:20 PM
Oct 1
50 °FScattered clouds.6 mph76%30.39 "HgN/A
6:50 PM50 °FScattered clouds.5 mph76%30.39 "HgN/A
6:20 PM50 °FSunny.6 mph76%30.39 "Hg10 mi
5:50 PM52 °FPassing clouds.5 mph67%30.39 "HgN/A
5:20 PM54 °FPassing clouds.6 mph63%30.39 "HgN/A
4:50 PM54 °FScattered clouds.5 mph63%30.39 "HgN/A
4:20 PM54 °FScattered clouds.7 mph67%30.42 "HgN/A
3:50 PM54 °FScattered clouds.8 mph63%30.42 "HgN/A
3:20 PM55 °FScattered clouds.7 mph59%30.42 "HgN/A
2:50 PM54 °FPartly sunny.9 mph63%30.42 "HgN/A
2:20 PM55 °FScattered clouds.8 mph59%30.45 "HgN/A
1:50 PM54 °FScattered clouds.9 mph63%30.45 "HgN/A
1:20 PM55 °FScattered clouds.7 mph63%30.45 "HgN/A
12:50 PM55 °FScattered clouds.8 mph63%30.45 "HgN/A
12:20 PM54 °FScattered clouds.8 mph67%30.45 "HgN/A
11:50 AM54 °FSunny.7 mph63%30.45 "Hg10 mi
11:20 AM54 °FPassing clouds.7 mph58%30.48 "HgN/A
10:50 AM52 °FPassing clouds.6 mph62%30.48 "HgN/A
10:20 AM50 °FSunny.3 mph82%30.45 "Hg10 mi
9:50 AM46 °FSunny.No wind87%30.45 "Hg10 mi
9:20 AM45 °FSunny.No wind87%30.45 "Hg10 mi
8:50 AM37 °FSunny.No wind100%30.45 "Hg10 mi
8:20 AM34 °FSunny.No wind100%30.45 "Hg10 mi
7:50 AM34 °FClear.1 mph100%30.45 "Hg10 mi
7:20 AM32 °FClear.No wind93%30.45 "Hg10 mi
6:50 AM30 °FClear.No wind100%30.45 "Hg10 mi
6:20 AM30 °FClear.No wind100%30.45 "Hg10 mi
5:50 AM32 °FClear.No wind93%30.45 "Hg10 mi
5:20 AM30 °FChilly.No wind100%30.45 "HgN/A
4:50 AM32 °FChilly.No wind100%30.45 "HgN/A
4:20 AM30 °FChilly.No wind100%30.45 "Hg6 mi
3:50 AM32 °FLight fog.No wind100%30.45 "Hg1 mi
3:20 AM32 °FLight fog.No wind100%30.45 "Hg1 mi
2:50 AM34 °FFog.No wind93%30.45 "Hg1 mi
2:20 AM34 °FChilly.2 mph100%30.45 "Hg6 mi
1:50 AM34 °FChilly.1 mph100%30.45 "HgN/A
1:20 AM34 °FFog.No wind93%30.45 "Hg1 mi
12:50 AM34 °FChilly.1 mph100%30.45 "HgN/A
12:20 AM36 °FChilly.2 mph93%30.42 "HgN/A
11:50 PM
Sep 30
36 °FChilly.2 mph93%30.42 "HgN/A
11:20 PM36 °FChilly.No wind100%30.42 "HgN/A
10:50 PM36 °FChilly.2 mph100%30.42 "HgN/A
10:20 PM37 °FChilly.No wind100%30.42 "HgN/A
9:50 PM39 °FClear.No wind93%30.42 "Hg10 mi
9:20 PM39 °FClear.No wind93%30.39 "Hg10 mi
8:50 PM41 °FClear.1 mph87%30.39 "Hg10 mi
8:20 PM43 °FClear.5 mph87%30.39 "Hg10 mi
Weather by CustomWeather, © 2014

See weather overviewHow to use our weather pages